Location: Bu�n Treun
(12.1333°N, 108.3167°E)
Time: 00:26:02
(UTC+00:00)

ALOS - Pass Details

Date: 13 July 2020
Orbit: 683 x 685 km, 97.8° (Epoch: 03 August)

Event Time Altitude Azimuth Distance (km) Brightness Sun altitude
Rises 21:59:17 0° 353° (N) 3,036 5.8 -7.6°
Reaches altitude 10° 22:01:48 10° 341° (NNW) 2,121 4.9 -7.0°
Maximum altitude 22:05:39 27° 284° (WNW) 1,316 3.3 -6.2°
Drops below altitude 10° 22:09:32 10° 227° (SW) 2,122 4.2 -5.3°
Enters shadow 22:11:43 - 216° (SW) 2,910 5.0 -4.8°
